Weather in Andrianovichi

Russia / Sverdlovsk Oblast     59°55′44″N   60°36′09″E
temp.,
°C
wind,
m/s
gust,
m/s
humid.,
%
clouds,
%
prec.,
mm/h
press.,
hPa
HPBL,
m
13 may, thu
thu1323:00+15w31064100 0.0 1025208
02:00+14w396719 0.0 1024141
05:00+14w39705 0.0 1024160
08:00+20wnw49515 0.0 1024527
11:00+24nw47365 0.0 10242161
14:00+26nw46295 0.0 10242704
17:00+26nw353055 0.0 10242553
20:00+23wsw114347 0.0 102312
14 may, fri
fri1423:00+18w2459100 0.0 102457
02:00+17wsw24610 0.0 102364
05:00+16wsw266525 0.0 1023101
08:00+22wsw4104319 0.0 1022450
11:00+27w572928 0.0 10212144
14:00+28w58266 0.0 10202609
17:00+28wsw582899 0.0 10192338
20:00+25wsw410386 0.0 1017607
15 may, sat
sat1523:00+19sw31254100 0.0 1017265
02:00+19wsw41157100 0.1 1016461
05:00+18wsw3967100 0.1 1017260
08:00+21w4105798 0.0 1017982
11:00+24wnw593552 0.0 10171695
14:00+27wnw58285 0.0 10172556
17:00+27wnw482818 0.0 10162914
20:00+22wnw24435 0.0 101696
16 may, sun
sun1623:00+18sw12576 0.0 101711
02:00+16ssw227678 0.4 101631
05:00+17ssw3881100 0.5 1015172
08:00+21wsw41354100 0.0 1015622
11:00+27wsw613295 0.0 10141613
14:00+30wsw7131765 0.0 10132567
17:00+30wsw6132476 0.0 10122924
20:00+26wsw5113097 0.0 1011895
17 may, mon
mon1723:00+23wsw41336100 0.0 1011664
02:00+20wsw41251100 0.1 1012580
05:00+18wsw4126367 0.1 1012480
08:00+21wsw585399 0.0 1012589
11:00+24w51139100 0.0 10122259
14:00+26w6102929 0.0 10113245
17:00+21wnw4948100 0.2 1012739
20:00+16wsw41178100 1.1 1013378